GFSMA_700_spd_000.txt.gz
Wind_Speed
7 7 8 9 10 10 12 13 14 14 16 18 19 20 20 18 15 13 13 11 11 11 9 9 8 10 4 2 3 4 5 5 6 6 6 7 7 6 6 6 6 6 7
10 11 11 11 11 12 14 16 15 17 18 19 21 20 18 16 12 11 13 13 13 13 12 10 10 10 9 3 6 6 7 7 7 7 7 7 7 7 7 8 8 7 8
10 10 12 13 13 15 15 17 19 19 18 16 16 17 14 13 11 9 9 12 13 13 14 14 12 12 11 11 10 9 8 8 9 9 9 9 9 9 9 9 9 9 9
12 13 14 14 15 15 17 19 17 19 18 15 14 13 11 8 7 5 6 7 11 13 14 16 15 14 15 15 16 14 12 11 11 11 12 13 12 11 11 11 10 11 11
13 14 15 16 17 18 17 20 21 17 17 15 15 13 9 7 6 5 4 6 7 10 14 17 18 17 17 17 17 17 17 14 13 14 15 15 15 15 14 14 13 12 12
14 16 15 17 18 17 20 20 20 19 17 15 14 13 9 7 7 6 5 5 8 9 11 13 16 21 20 19 19 19 19 20 21 20 18 18 17 17 17 16 16 16 15
15 16 16 15 16 18 19 19 16 16 16 15 14 13 11 9 7 6 7 6 6 9 10 12 13 17 21 22 24 22 21 21 24 21 23 22 21 21 19 19 19 19 19
11 10 9 10 10 12 12 13 12 12 12 13 13 11 6 15 9 9 8 6 5 7 8 11 13 15 17 20 22 26 27 27 25 26 26 25 25 24 23 23 22 22 22
6 4 2 1 3 6 9 10 10 9 10 11 10 9 8 4 10 12 9 9 9 10 10 10 12 13 16 18 21 22 22 26 30 30 29 30 28 28 27 27 27 26 26
8 6 5 5 7 9 11 12 11 9 9 11 9 9 10 12 6 4 10 14 13 13 12 13 14 15 15 17 18 19 20 21 23 27 30 32 32 33 35 32 31 31 30
6 6 8 9 11 11 12 13 12 10 10 10 10 10 10 9 9 9 8 10 17 20 18 16 15 17 18 19 21 21 22 23 23 25 27 30 32 34 37 36 36 35 34
2 5 7 10 12 14 14 14 12 11 10 9 9 9 11 11 9 10 11 13 16 18 19 18 19 19 20 21 22 23 25 25 26 27 28 30 32 34 36 36 38 38 38
3 4 6 9 11 14 16 15 13 12 11 11 11 11 12 13 13 15 15 14 12 14 17 15 20 20 23 24 25 24 25 27 28 28 28 30 32 33 36 38 39 39 40
8 8 7 9 12 14 16 18 15 13 13 13 12 11 11 14 14 14 15 17 18 15 13 22 21 20 21 24 25 24 25 25 28 30 31 30 32 33 34 36 37 39 41
10 9 13 14 15 15 16 19 18 16 15 14 14 12 13 14 15 15 16 18 20 22 20 17 19 23 20 21 22 24 25 27 27 30 32 34 34 35 36 36 37 37 39
14 12 13 17 22 22 18 21 20 18 16 16 16 14 13 14 14 15 17 21 23 22 22 21 23 26 26 25 26 25 24 26 28 29 32 34 37 39 40 40 39 39 39
25 16 17 27 25 25 22 21 22 19 18 16 15 14 14 15 16 17 17 22 24 25 23 18 24 27 30 34 29 28 29 30 29 30 32 35 36 36 40 41 43 44 43
31 23 27 25 22 26 28 23 23 22 18 16 15 13 15 18 16 17 21 22 23 26 27 32 22 26 32 35 36 32 30 32 33 32 31 33 35 35 38 40 42 45 47
40 44 46 45 40 32 29 24 23 23 20 17 14 15 16 20 17 19 22 23 25 30 30 32 30 31 29 33 33 32 33 31 33 34 36 35 35 36 36 37 36 40 44
55 55 44 41 36 38 30 23 25 24 23 20 18 19 19 21 21 24 26 27 31 33 29 29 29 27 33 31 27 31 28 28 32 33 34 34 34 35 39 42 44 45 44
47 46 39 36 37 37 33 26 27 27 25 24 23 22 23 26 28 30 32 30 32 33 32 32 30 30 37 33 28 33 35 32 36 33 36 37 38 37 36 41 43 45 48
36 34 27 34 35 36 37 31 29 29 28 27 28 26 29 29 30 30 32 32 33 36 35 33 34 36 37 33 31 34 39 39 38 35 39 40 40 39 40 42 49 50 54
29 31 29 34 32 32 35 32 30 32 33 33 32 33 32 31 32 30 30 32 35 36 35 35 38 38 36 37 36 38 38 38 40 37 41 41 43 46 46 50 56 52 52
26 23 26 29 29 31 35 34 36 35 35 33 33 35 38 37 37 27 29 35 37 36 37 36 39 42 40 36 35 38 39 41 41 40 40 45 48 51 52 59 58 47 45
27 23 25 24 26 30 35 33 35 34 36 33 36 44 42 42 39 28 31 36 37 37 37 38 37 39 36 34 37 41 39 42 43 42 38 46 50 52 61 52 34 32 35
23 20 22 23 24 27 31 28 28 31 34 37 37 48 40 34 32 29 34 37 38 36 36 35 38 35 32 33 34 37 38 40 41 43 40 47 48 54 60 37 25 24 28

GFSMA_700_spd_003.txt.gz
Wind_Speed
8 9 7 8 8 11 11 13 15 17 17 19 22 20 20 20 16 13 15 11 12 10 9 8 8 6 4 1 1 1 3 4 5 5 6 6 5 6 6 6 6 6 6
7 11 10 10 12 13 12 15 16 19 21 22 22 18 16 15 12 10 10 11 14 13 11 9 8 8 9 7 2 4 4 5 6 6 6 6 6 7 7 7 7 7 6
11 11 12 12 12 14 13 16 17 21 20 20 17 16 16 12 11 9 9 11 11 13 13 12 11 10 11 11 9 11 9 6 7 8 9 8 7 7 8 8 8 9 8
11 12 13 16 16 16 17 18 15 16 23 21 16 14 13 10 7 7 8 8 10 12 12 13 14 13 12 12 12 11 13 11 9 9 9 10 10 10 10 10 10 10 10
13 14 13 16 18 16 20 21 20 20 25 19 16 15 13 10 7 6 5 8 7 10 12 12 15 16 15 15 16 15 16 15 13 11 10 12 12 12 13 13 12 12 11
15 15 16 16 18 18 19 17 18 23 22 19 9 12 10 12 9 7 4 6 7 9 11 12 11 16 19 18 17 18 19 18 18 19 17 15 15 16 15 16 15 15 14
15 17 17 18 16 18 18 21 20 21 17 16 9 7 14 11 13 8 3 5 7 10 11 11 13 13 14 18 21 20 20 20 20 20 23 24 20 18 19 18 18 18 17
15 15 13 14 13 13 15 14 14 14 13 12 7 5 3 15 17 10 11 5 6 6 8 12 13 13 17 16 18 22 24 24 24 24 24 25 23 22 22 22 21 21 20
7 6 5 5 5 8 11 11 11 11 10 13 7 5 2 5 9 17 19 9 8 8 8 10 10 12 14 17 19 19 21 23 25 27 30 29 28 29 27 25 25 25 24
4 3 2 2 5 7 11 13 14 13 10 8 12 6 7 9 10 5 11 23 19 9 6 10 12 11 12 16 15 16 19 20 21 23 24 27 30 31 32 32 31 30 29
6 5 2 1 4 7 8 10 12 12 11 9 9 11 8 8 7 10 7 9 12 20 17 11 12 13 12 14 18 13 16 19 20 22 23 24 26 29 33 35 36 37 35
8 5 4 4 6 9 11 11 10 11 12 12 11 10 9 6 6 7 9 11 12 16 21 21 15 15 15 15 16 18 20 19 21 22 24 26 27 28 31 33 36 38 39
11 9 7 8 10 12 15 16 14 12 12 13 12 13 13 11 11 11 9 9 10 7 17 23 23 20 16 18 21 19 20 22 23 24 24 25 27 28 30 32 35 36 37
15 11 9 8 10 12 16 19 21 18 15 14 13 11 13 13 13 12 11 13 12 11 7 18 20 21 25 15 18 21 23 22 23 25 25 27 28 29 30 31 33 35 36
14 13 10 14 18 20 20 19 21 22 19 16 15 13 12 12 11 12 14 9 13 14 13 13 17 19 25 21 20 18 21 23 24 27 29 29 30 31 32 34 36 35 35
20 20 17 23 29 33 33 32 25 24 22 18 15 13 11 9 11 13 15 11 15 16 16 15 16 20 24 25 24 25 22 25 27 27 29 33 33 34 35 35 37 39 39
25 29 31 32 30 32 29 34 29 24 25 21 15 14 11 10 12 14 11 13 17 17 17 18 22 26 29 29 31 32 33 33 30 30 31 30 31 36 37 37 37 38 41
32 35 34 38 40 37 30 34 30 30 26 23 19 16 14 14 14 13 13 18 20 24 25 26 26 25 26 27 31 32 33 34 31 30 30 32 33 34 36 37 38 37 39
38 35 40 43 43 43 43 42 32 34 28 23 19 17 16 15 13 11 14 17 22 27 27 29 28 25 21 26 29 33 34 31 30 29 34 31 33 30 29 33 36 39 38
36 36 38 43 47 47 46 45 41 34 29 25 23 21 19 21 22 21 20 23 25 27 30 29 33 33 33 28 27 32 35 29 35 31 30 34 35 35 32 32 36 36 36
35 36 36 35 40 42 46 44 42 31 32 29 25 25 22 24 26 25 27 29 24 28 31 32 34 35 32 27 32 34 34 33 35 30 38 36 37 37 37 38 36 35 36
35 35 36 34 32 35 41 41 45 33 34 32 29 29 29 28 29 31 31 35 35 32 29 32 32 34 34 35 33 33 36 39 40 37 38 40 38 38 39 39 36 35 37
26 28 24 25 33 36 36 35 40 32 37 36 33 30 33 28 30 33 35 39 40 35 28 31 34 35 36 35 36 37 37 37 37 37 39 41 38 39 36 36 36 38 38
11 14 21 30 32 32 36 32 35 33 35 35 35 33 35 31 35 36 44 45 41 38 33 34 37 36 35 37 39 38 34 34 35 35 36 37 37 38 37 40 41 40 47
17 30 24 35 29 30 33 26 26 31 34 35 36 35 36 36 38 38 42 31 31 34 33 38 39 34 35 36 32 31 32 35 36 36 31 35 39 40 43 45 44 40 53
22 28 29 30 25 26 26 23 22 26 29 32 32 30 30 33 37 35 33 31 37 36 37 36 36 36 35 30 27 30 34 37 39 39 33 39 41 40 45 41 45 55 56

GFSMA_700_spd_006.txt.gz
Wind_Speed
5 5 6 5 7 8 10 13 13 14 16 18 21 19 13 15 14 12 12 6 8 8 8 8 7 3 4 3 3 2 1 2 3 4 4 4 5 4 4 4 5 5 5
7 10 9 9 9 9 9 13 15 16 16 16 24 20 16 12 11 10 9 5 9 10 8 8 7 5 7 5 5 4 3 3 3 4 3 4 5 5 5 5 5 6 5
8 9 10 10 13 11 12 13 13 12 15 20 21 19 15 12 10 8 7 8 4 9 10 9 10 7 7 9 8 8 7 5 4 5 5 5 5 6 6 6 6 7 7
10 9 10 11 7 15 16 14 18 16 14 19 18 15 13 10 9 9 6 6 6 5 9 11 12 11 9 10 11 11 8 9 8 6 6 5 6 7 8 8 8 8 8
8 11 10 13 15 16 18 15 11 17 21 20 17 14 12 10 7 9 6 7 4 6 8 10 12 13 13 13 13 13 13 13 11 11 9 8 6 7 9 10 11 10 9
13 12 13 14 14 16 16 16 14 20 21 18 11 9 5 10 11 6 5 4 6 7 9 4 8 12 14 16 16 15 16 16 15 15 17 14 12 11 10 11 12 13 14
14 12 12 14 13 12 15 15 17 18 17 13 8 8 6 13 13 10 5 8 7 9 9 11 11 9 9 12 15 18 17 17 18 18 18 19 20 19 16 13 14 15 15
15 12 10 9 8 8 8 9 12 13 13 11 4 3 2 7 10 15 13 5 7 8 8 8 11 12 13 14 13 14 17 20 21 21 21 21 21 22 20 19 18 17 17
7 5 4 4 4 6 9 9 9 10 11 9 4 0 4 6 5 9 14 8 9 9 8 10 7 12 14 13 13 15 17 17 19 22 24 26 28 27 26 24 23 22 21
5 5 4 2 3 6 8 9 11 10 10 11 8 1 6 10 11 5 11 10 19 2 5 9 7 9 13 13 13 13 16 17 18 19 20 21 24 26 30 31 29 28 27
8 6 3 3 3 4 7 10 12 13 11 10 9 9 4 6 11 15 7 9 12 22 13 8 9 11 10 13 14 11 15 16 17 18 20 21 22 23 24 26 30 32 32
8 7 8 5 6 7 9 11 12 13 14 13 11 8 8 8 6 11 15 19 20 12 15 19 12 8 9 12 13 12 14 16 17 19 21 22 24 25 26 26 27 29 32
11 13 11 9 8 10 13 18 19 18 16 14 14 11 10 8 8 11 13 13 12 9 11 13 21 20 17 10 15 15 14 16 16 17 20 21 23 25 26 28 29 29 31
17 10 12 10 11 12 19 19 21 29 23 18 16 16 12 10 10 10 11 13 10 9 10 10 13 22 24 17 11 15 16 19 18 19 18 19 22 25 26 28 29 30 30
18 12 14 14 16 19 19 19 22 29 29 23 20 19 19 15 11 9 11 13 10 8 10 8 14 19 18 26 25 23 18 17 18 19 21 23 26 26 24 27 29 30 31
21 15 17 18 23 24 28 26 29 31 29 25 21 21 17 17 12 8 11 16 9 15 16 12 13 14 20 25 26 29 30 29 26 22 22 24 27 29 30 30 28 30 33
17 23 23 24 27 28 30 30 34 37 41 29 27 23 19 15 12 10 12 10 11 13 14 15 18 19 22 24 24 26 29 31 30 31 30 27 23 25 28 30 31 32 32
22 27 29 31 33 34 36 36 37 39 41 36 34 31 20 17 15 14 12 10 12 14 17 20 19 21 21 22 22 27 31 30 29 27 29 27 27 26 24 25 30 33 35
25 29 33 35 39 41 41 43 44 43 41 37 36 31 23 20 20 19 15 15 15 17 23 24 20 27 27 23 23 25 26 29 26 28 29 30 30 26 27 28 27 27 29
27 31 34 38 40 42 43 44 46 44 39 35 36 32 31 26 24 23 20 18 18 21 25 27 30 25 29 27 27 28 29 30 31 32 30 34 35 31 33 34 34 32 31
26 30 34 35 35 38 41 45 48 44 41 37 35 36 32 30 26 25 26 20 26 29 31 34 36 32 33 28 29 30 33 33 32 34 36 38 35 35 33 34 36 35 35
29 31 33 33 29 26 38 42 46 43 42 37 33 34 31 33 28 28 24 27 29 31 35 43 43 41 28 27 29 32 34 35 37 34 37 36 33 36 34 34 35 36 36
31 33 32 27 21 27 36 42 48 43 40 38 35 31 32 33 30 27 24 29 33 37 37 38 28 27 29 28 30 32 33 37 36 31 32 32 32 36 32 32 29 30 34
29 29 26 22 25 21 36 42 44 38 41 37 34 29 32 29 30 28 28 29 33 35 33 31 32 32 30 29 31 34 35 34 30 28 30 31 32 37 32 31 31 33 34
26 22 21 24 24 29 30 37 34 35 36 33 32 32 30 28 28 26 26 28 33 30 28 32 33 36 34 32 33 36 33 34 32 30 28 29 33 36 33 32 31 31 31
19 19 22 24 27 29 29 29 27 27 26 27 27 26 22 22 20 22 28 30 29 29 30 32 33 34 33 31 32 33 31 29 30 32 30 32 36 35 37 28 30 32 39

GFSMA_700_spd_009.txt.gz
Wind_Speed
5 5 6 7 7 9 8 10 11 12 13 13 16 15 14 9 5 8 4 2 4 5 4 1 1 1 6 5 5 5 5 4 2 2 3 3 3 2 3 3 3 3 3
3 4 5 8 8 10 10 11 12 11 12 13 19 18 14 11 7 6 3 1 4 7 6 3 2 2 5 5 5 6 6 6 3 3 3 3 3 3 3 4 4 4 4
5 5 5 9 11 6 10 12 11 13 13 17 20 17 13 9 8 5 3 1 3 6 8 6 6 5 5 7 8 8 6 6 7 4 3 3 3 4 4 4 5 5 5
7 6 7 7 9 8 15 14 11 10 11 18 16 15 8 7 5 6 1 1 3 5 8 9 8 8 8 8 9 10 7 7 6 3 3 4 5 5 5 5 5 5 6
7 4 9 8 12 11 13 13 12 12 15 16 14 12 7 5 6 5 6 4 3 5 6 9 9 10 10 11 10 10 10 10 9 9 13 8 6 6 6 6 7 7 7
8 6 11 9 12 12 11 12 10 13 13 11 9 8 3 2 6 5 4 3 5 5 5 4 7 9 9 11 13 12 13 14 13 13 13 13 12 9 8 8 9 8 9
12 10 10 11 11 9 8 9 12 12 12 9 7 7 3 5 6 7 7 4 1 5 9 5 6 7 7 8 10 14 16 15 14 15 16 16 16 17 16 14 12 11 10
12 12 11 7 5 4 6 9 11 13 13 10 7 1 2 3 6 9 5 5 4 1 6 6 8 9 9 10 11 12 13 17 19 19 19 17 18 18 17 17 16 16 14
9 7 4 1 2 5 8 9 11 13 14 14 9 5 1 2 3 12 10 10 4 4 4 5 7 9 7 9 12 14 15 16 17 18 20 22 23 24 24 23 22 20 19
7 5 4 2 3 6 8 8 10 13 13 14 12 8 5 6 8 11 10 13 12 4 5 4 8 10 10 8 10 11 14 15 16 17 18 18 20 21 23 24 25 26 25
7 5 3 2 3 4 8 11 15 16 18 16 14 13 8 6 10 14 16 15 17 11 8 9 10 9 11 13 11 11 12 13 15 16 18 19 19 20 21 21 22 23 24
9 7 5 2 2 4 9 11 14 19 25 22 16 13 14 11 9 10 13 15 17 20 21 11 7 7 9 13 10 11 13 14 14 15 17 19 20 21 21 22 23 24 25
9 8 6 5 5 4 5 11 10 20 25 21 14 13 12 12 13 12 10 11 14 15 15 17 15 11 6 5 8 8 9 12 11 14 16 18 19 21 21 22 23 24 25
10 7 7 8 9 7 9 13 18 21 28 28 17 18 14 11 12 12 12 9 8 9 10 13 15 13 15 10 6 5 6 9 12 16 18 18 20 22 23 23 23 24 26
9 10 11 13 13 13 14 15 19 22 25 29 26 21 21 19 16 15 14 9 9 9 5 10 11 11 14 19 20 15 12 12 15 16 19 21 24 25 25 24 26 25 25
10 11 14 17 16 16 18 19 24 27 27 28 30 28 27 25 21 16 15 11 11 10 6 6 9 11 12 18 20 22 22 16 15 17 19 22 23 25 25 25 25 25 25
11 10 14 20 21 22 24 24 25 31 32 32 29 28 27 28 22 18 16 13 14 11 10 10 12 13 10 14 15 19 20 21 22 20 21 22 19 17 17 22 26 27 27
12 14 15 21 24 26 29 29 30 34 33 33 32 29 27 27 22 19 19 14 15 15 15 15 16 19 19 23 22 21 23 21 20 21 20 23 22 22 20 19 22 24 27
16 18 19 20 25 29 31 32 34 36 36 33 31 29 29 29 24 21 21 18 18 19 17 19 18 20 23 27 29 30 25 25 23 26 26 27 26 26 28 26 26 27 27
19 22 25 27 30 32 34 35 35 38 37 36 33 32 30 27 23 23 22 23 20 21 22 21 26 27 30 28 29 34 29 29 26 28 29 31 31 33 34 31 31 32 32
20 23 27 29 31 32 33 32 33 35 37 37 34 34 32 31 24 23 24 24 24 22 22 22 27 30 31 31 27 27 30 31 31 28 30 33 34 34 33 33 32 33 35
23 26 28 30 30 31 31 29 31 33 39 35 32 35 35 34 25 24 26 27 24 22 22 26 30 31 29 22 25 29 32 33 32 27 36 33 28 28 27 28 31 33 34
26 29 31 32 31 29 28 27 29 33 41 38 33 35 31 25 25 25 28 24 23 23 24 29 32 28 27 26 29 28 31 34 33 31 32 30 26 29 30 30 29 28 30
30 30 31 32 29 24 22 25 30 37 42 36 32 33 30 25 27 25 26 26 25 21 24 30 30 27 30 29 31 32 34 34 34 31 29 33 28 32 32 33 30 31 33
28 27 28 26 24 23 22 28 33 39 38 28 29 28 27 22 25 21 21 18 19 23 28 30 29 30 31 31 32 34 34 35 33 26 22 30 30 33 33 31 28 29 31
29 30 26 22 22 22 25 30 33 31 25 21 23 25 24 24 18 18 19 23 25 26 28 29 31 29 32 32 31 32 33 33 25 23 22 29 30 32 36 30 28 28 30

GFSMA_700_spd_012.txt.gz
Wind_Speed
1 1 3 3 4 6 6 8 10 12 16 13 16 16 9 5 5 5 1 2 4 7 7 7 5 4 8 7 6 6 7 7 7 4 3 3 3 2 2 2 3 3 3
3 4 6 6 5 7 8 10 10 10 13 13 17 18 11 6 3 3 1 3 3 6 8 8 7 9 9 7 8 6 8 7 5 3 4 3 4 3 3 3 3 3 3
5 7 7 5 5 6 8 11 9 10 8 11 17 15 8 7 5 1 3 4 4 6 8 8 8 8 9 10 9 9 8 5 6 3 4 4 5 4 3 4 4 4 4
8 8 6 7 8 11 8 10 9 8 7 10 12 10 5 6 5 4 3 4 5 6 8 8 8 9 9 11 12 12 9 6 8 5 4 4 5 6 5 4 4 4 4
8 8 8 8 9 10 10 9 7 9 10 11 11 4 2 5 6 2 1 4 5 6 6 8 9 9 10 10 10 11 11 10 11 11 13 10 7 7 6 5 6 6 6
7 9 10 9 10 10 8 7 10 12 12 12 10 4 1 1 5 4 4 4 3 2 4 4 8 8 10 12 13 12 13 13 14 14 15 15 13 12 9 8 8 8 8
10 12 12 8 7 6 7 10 13 14 14 13 10 6 3 2 4 2 6 5 2 1 3 5 6 6 8 9 11 13 14 15 15 15 17 17 16 16 16 15 14 12 11
13 13 9 6 3 7 7 9 11 12 13 14 13 8 6 7 6 3 5 5 5 5 4 4 4 5 7 10 12 11 12 13 16 17 17 17 17 17 17 16 17 17 16
11 7 2 4 6 6 6 8 12 14 16 14 12 11 8 6 6 6 6 7 4 8 6 5 5 5 7 9 12 14 15 15 15 16 18 20 21 23 23 22 21 21 20
7 6 7 6 7 6 7 10 13 15 17 16 12 10 10 8 10 8 8 10 10 9 3 8 9 8 9 10 11 13 13 14 14 15 16 17 19 20 22 23 24 24 25
10 10 9 8 7 6 7 9 12 20 22 19 8 10 9 8 10 11 12 12 11 8 8 9 8 11 9 11 12 12 13 14 13 14 14 15 17 18 20 21 22 23 22
14 12 11 9 5 4 5 7 6 15 24 18 11 12 13 13 11 11 11 11 13 14 12 6 8 7 11 10 8 10 10 12 13 14 15 16 17 18 19 21 22 23 23
13 13 12 9 6 3 1 6 10 14 19 25 20 14 13 14 16 14 13 13 12 11 10 13 7 6 6 6 6 7 9 10 10 12 13 15 16 17 19 21 22 24 26
15 15 12 10 8 7 6 6 10 14 16 20 22 23 19 16 16 18 17 15 12 11 10 8 8 7 4 2 4 6 9 11 13 15 16 17 19 20 19 20 24 25 27
17 17 15 14 12 10 9 9 12 15 17 18 21 22 23 20 17 16 16 16 14 12 9 10 8 7 9 7 6 7 7 9 12 14 15 18 20 21 23 24 26 26 28
19 16 15 14 12 10 13 13 15 18 22 22 22 22 23 23 21 17 14 17 14 12 12 12 10 9 10 12 15 14 14 14 13 15 19 20 20 22 24 26 26 26 27
20 17 16 18 17 18 17 17 19 21 23 25 25 23 21 21 23 19 15 17 16 13 13 13 11 11 10 13 12 16 20 23 21 20 19 20 20 21 22 26 28 27 26
18 17 16 16 19 21 22 21 22 24 26 28 28 25 19 17 24 19 15 17 20 16 16 18 15 13 14 15 19 23 23 25 26 26 26 25 23 23 27 26 27 29 28
18 18 17 15 15 20 21 23 24 27 29 30 31 30 22 18 16 19 19 15 20 21 19 20 17 17 22 23 24 26 28 27 27 26 28 30 30 31 31 30 29 31 34
20 19 18 19 20 22 23 24 27 29 30 32 31 31 24 22 19 18 19 18 19 23 20 24 27 26 24 23 30 31 28 26 28 27 30 31 32 33 32 34 36 37 36
24 23 23 25 25 26 25 24 26 27 31 32 31 30 26 23 21 21 20 17 21 24 23 27 25 24 25 27 32 31 29 27 28 32 32 33 34 35 36 36 35 34 34
26 27 29 30 29 28 25 24 25 25 29 32 34 30 25 24 24 23 20 17 20 24 27 24 26 28 27 30 31 31 30 32 34 31 35 32 34 33 32 31 29 30 31
28 29 29 29 29 28 28 26 23 27 26 33 33 26 24 24 27 22 19 19 21 21 25 26 27 28 29 29 29 32 32 34 34 32 37 36 33 35 31 31 30 31 33
31 31 31 31 26 31 27 25 23 27 29 33 29 24 24 23 20 21 22 21 22 24 27 28 28 30 32 29 32 35 36 37 37 34 35 40 32 31 29 29 29 32 33
35 33 31 29 23 18 22 25 29 29 33 33 30 27 19 18 19 21 23 22 19 17 21 26 30 32 31 32 34 36 36 39 38 34 31 35 30 31 32 31 30 32 34
31 29 25 21 34 27 21 25 30 29 33 30 23 17 16 18 20 19 25 19 19 20 25 30 32 33 34 36 36 37 37 35 34 34 24 29 30 33 37 34 30 28 30

GFSMA_700_spd_015.txt.gz
Wind_Speed
3 3 1 2 5 6 8 8 10 9 10 9 13 17 11 5 3 1 5 8 10 10 9 6 5 4 7 7 6 6 7 7 7 6 4 3 3 3 3 2 2 2 2
4 1 3 5 7 8 6 10 11 9 10 10 14 15 11 5 1 1 5 8 9 9 10 8 6 5 8 7 7 7 7 7 6 5 4 4 3 2 3 3 2 2 3
4 3 4 6 7 8 12 11 12 12 11 10 15 14 8 5 1 2 3 8 10 10 10 10 9 9 9 9 10 8 9 8 5 5 4 4 3 3 3 3 3 3 4
4 5 4 7 8 9 10 11 11 12 13 11 13 12 6 5 2 3 4 6 9 11 11 10 10 10 10 11 11 11 11 9 7 7 5 4 4 4 5 5 4 4 4
4 5 5 7 8 10 9 9 8 9 11 11 10 6 4 3 4 5 1 3 6 9 12 12 11 11 11 10 11 13 13 11 10 10 9 9 7 7 7 7 6 6 6
7 7 6 7 7 7 4 7 8 11 13 13 11 7 4 2 3 5 3 1 1 3 7 12 13 13 12 13 13 12 13 14 14 14 14 13 13 11 10 9 8 7 8
10 9 9 5 3 4 6 8 10 12 12 13 12 8 5 3 2 3 3 2 1 2 3 5 7 9 11 11 13 14 15 15 15 17 17 16 16 15 16 15 14 13 12
13 12 8 3 6 6 8 9 10 12 12 11 10 9 8 8 9 4 6 6 4 4 3 4 6 9 11 10 12 12 12 14 17 17 18 18 18 18 18 18 18 18 17
14 8 4 9 9 9 8 9 11 14 11 9 7 7 8 9 10 9 6 7 6 6 3 4 5 7 9 11 13 14 15 16 15 15 17 19 20 21 21 21 20 20 20
14 7 11 12 11 9 8 11 14 20 16 9 6 8 9 9 9 9 10 11 10 9 6 6 8 8 8 10 11 12 12 13 14 14 15 16 17 18 18 20 21 22 23
11 13 15 15 12 9 8 8 9 15 23 12 11 10 10 10 10 10 10 9 9 10 7 10 9 7 8 10 11 11 13 12 12 13 14 15 16 17 18 19 19 20 21
12 16 17 16 13 10 7 5 3 9 17 21 17 12 11 11 11 12 12 12 12 10 10 9 8 7 7 7 9 10 11 11 13 13 14 16 16 17 19 19 20 21 22
15 17 19 17 13 10 7 3 0 6 10 15 18 18 17 14 12 12 11 12 13 13 12 10 7 8 6 5 6 7 10 10 11 13 15 16 16 16 16 18 20 21 22
19 21 20 18 14 12 10 7 4 5 7 12 16 17 17 17 14 16 12 12 11 13 12 13 8 6 6 6 7 8 10 11 12 15 17 19 20 20 19 21 22 22 23
24 27 23 19 16 14 12 12 11 10 11 13 15 17 17 16 17 13 12 10 12 10 10 12 10 10 7 6 8 8 6 7 11 15 19 20 21 23 23 23 23 24 25
27 29 25 21 17 16 14 14 13 14 14 16 18 20 20 17 14 17 12 10 9 10 11 12 10 9 10 11 9 9 11 12 14 16 19 21 23 23 22 24 25 25 26
31 29 24 22 19 16 16 15 16 17 16 19 21 23 22 20 17 17 11 11 10 11 12 11 13 12 13 15 15 15 19 20 22 24 24 25 26 26 27 27 28 29 28
34 29 27 25 22 19 19 19 19 20 20 21 22 24 25 23 20 19 15 14 11 13 15 14 13 12 16 17 19 21 25 26 28 29 28 29 31 30 29 29 31 31 32
33 31 28 26 24 24 21 20 20 21 23 23 25 26 25 26 22 21 19 15 14 14 16 16 16 17 17 21 25 26 28 28 30 32 32 32 31 32 33 34 34 33 33
33 32 30 26 23 21 20 20 21 21 24 26 26 26 25 26 21 21 22 19 18 18 20 20 17 21 23 26 27 30 30 32 30 29 27 29 32 34 35 36 36 36 36
32 32 30 28 24 23 22 21 22 24 26 26 26 27 26 24 22 21 23 21 19 20 22 22 23 25 26 30 31 33 33 31 27 29 30 32 34 35 36 37 37 39 39
33 33 31 28 26 25 23 23 23 25 28 26 28 28 26 26 21 22 23 22 20 19 22 25 24 28 28 29 31 32 35 34 32 32 34 33 35 35 35 35 36 36 36
37 36 33 31 28 27 24 23 26 31 34 26 31 30 26 25 20 23 22 22 21 20 21 25 25 27 30 32 32 34 38 37 37 36 38 39 35 37 36 35 32 32 33
40 39 36 33 30 29 25 20 21 22 20 24 28 28 27 27 19 21 24 21 22 22 25 26 28 26 25 29 35 37 36 37 39 37 39 43 37 35 35 32 28 29 31
42 40 38 35 32 28 26 21 14 21 28 22 28 28 29 26 22 19 21 23 23 23 29 26 23 25 31 34 38 38 37 40 41 39 38 40 37 35 30 29 30 31 33
41 40 38 36 34 31 33 28 27 26 27 28 29 32 28 21 18 19 21 24 22 24 25 25 25 29 32 32 33 35 38 39 40 39 36 38 35 32 36 32 30 29 30

GFSMA_700_spd_021.txt.gz
Wind_Speed
1 0 1 2 5 6 7 10 13 12 13 9 10 8 10 2 3 6 9 10 11 10 8 7 3 6 6 7 6 6 6 6 5 3 3 3 3 2 2 2 2 3 3
2 0 1 2 4 6 9 11 12 13 13 10 7 9 8 4 2 6 7 9 10 11 9 8 7 5 6 6 6 6 6 6 6 5 5 4 4 3 3 3 3 3 4
5 2 2 2 3 6 10 12 12 12 11 11 8 8 7 4 3 6 8 8 9 9 10 8 6 6 9 7 5 5 5 5 4 5 6 6 6 5 3 4 4 5 5
7 4 3 1 3 5 6 7 8 10 11 11 9 7 5 5 5 7 8 8 9 9 10 9 8 7 8 7 8 8 7 8 6 7 8 7 6 5 4 5 6 5 6
6 6 3 2 2 4 3 4 7 8 10 11 10 6 4 5 4 5 7 8 8 9 10 9 9 10 9 9 9 11 10 11 11 9 9 8 7 6 5 6 7 8 7
7 7 5 2 2 2 3 5 5 7 9 10 9 8 6 5 7 7 5 5 6 8 10 10 11 11 11 12 11 11 12 13 13 12 12 12 11 13 11 9 9 10 10
9 8 6 2 3 3 3 2 5 8 7 7 9 10 10 8 6 7 6 3 2 3 5 8 13 15 13 13 13 13 14 14 14 15 15 15 15 14 15 15 15 18 18
10 11 8 6 7 6 4 2 5 7 4 5 8 9 11 11 10 8 7 7 5 2 2 4 6 8 10 12 14 14 15 15 16 17 17 17 17 17 17 18 19 21 18
12 12 10 8 11 9 7 4 6 4 4 7 9 9 9 9 9 9 8 8 8 6 3 1 2 5 8 10 12 14 15 16 16 16 17 17 18 19 20 20 20 21 20
14 14 12 13 15 12 9 8 8 9 9 8 9 9 9 9 7 6 6 5 5 6 6 4 5 5 6 8 10 11 12 13 15 16 18 18 18 19 19 20 22 23 23
13 16 16 19 18 16 12 10 13 11 11 12 12 11 11 10 9 8 7 7 6 6 5 5 7 7 7 7 6 8 9 11 13 14 15 16 16 16 17 18 19 20 21
11 18 22 24 22 19 15 11 11 12 12 12 12 12 13 13 14 11 8 6 7 7 7 7 8 7 7 7 8 7 5 6 7 8 10 13 15 16 17 18 19 19 20
10 18 25 26 23 21 19 15 11 7 6 7 8 9 11 12 13 13 13 12 9 7 6 6 7 7 7 6 6 7 7 7 7 8 9 10 11 13 15 17 19 21 22
14 18 25 27 25 24 21 18 14 9 4 1 3 5 8 11 11 10 10 8 10 12 9 5 6 6 6 7 6 6 8 9 8 8 9 10 10 11 13 14 16 18 20
18 23 27 29 28 26 23 19 16 13 10 7 7 7 9 10 11 12 11 10 10 11 11 11 8 6 7 7 8 10 11 12 11 13 15 17 18 20 21 22 22 20 19
19 25 30 32 32 30 26 22 18 16 13 12 10 11 13 14 13 13 13 12 12 13 12 14 14 10 9 11 11 12 13 14 15 17 21 23 23 24 25 26 26 26 25
22 25 32 34 34 32 29 24 21 18 16 14 12 14 15 16 16 15 14 13 14 13 15 15 18 17 14 14 15 16 16 17 19 21 24 25 27 28 30 29 28 27 26
25 26 32 36 37 35 32 27 24 21 18 17 16 16 17 21 18 18 17 16 16 15 14 14 17 20 20 19 18 20 21 19 21 24 25 27 28 29 29 29 29 28 28
27 30 33 37 39 37 34 30 26 24 20 20 20 17 12 25 16 17 19 19 19 18 18 16 17 20 23 23 24 23 23 24 23 25 28 29 29 32 30 29 29 30 31
30 32 34 38 40 38 36 34 30 26 24 22 21 22 23 24 19 17 20 21 23 22 22 20 20 20 23 25 27 27 28 26 27 29 29 30 33 35 34 33 34 32 31
29 31 35 39 41 41 39 36 32 28 26 25 24 27 26 28 27 20 21 23 25 26 26 25 23 21 22 25 26 27 27 28 31 30 31 32 32 34 34 34 35 35 36
29 33 37 39 42 42 41 38 34 32 30 31 27 29 29 31 31 28 24 25 26 28 29 29 26 23 24 24 25 25 27 30 31 31 29 30 34 33 34 36 34 33 33
32 33 38 39 41 43 42 39 37 36 35 34 31 30 30 31 34 32 29 27 28 28 30 30 27 23 24 24 26 27 28 28 28 32 34 33 32 33 33 33 33 33 32
35 34 37 39 40 42 45 43 42 41 40 38 35 32 31 31 30 25 26 27 27 27 29 29 28 23 27 27 28 27 27 28 30 33 35 36 34 33 31 30 29 30 30
38 39 38 41 40 41 41 44 45 45 45 43 39 35 35 32 32 26 25 25 26 27 27 28 29 28 27 27 28 28 27 29 33 33 32 32 32 32 29 25 26 26 28
39 39 42 42 44 43 45 47 48 50 49 46 43 39 37 31 32 30 25 23 26 27 27 27 29 28 29 28 27 26 29 31 31 31 31 27 28 30 27 21 21 25 27

GFSMA_700_spd_024.txt.gz
Wind_Speed
4 2 1 1 3 6 8 8 10 11 12 10 5 7 4 1 2 2 6 10 11 9 6 5 3 6 4 4 4 4 5 5 4 2 2 2 2 3 3 3 4 4 4
3 3 1 1 3 3 5 8 9 12 13 8 5 7 5 3 1 4 5 10 9 11 7 6 5 4 4 4 4 4 4 5 5 3 4 4 4 4 4 4 5 4 4
5 3 1 1 3 4 5 6 8 12 13 10 9 5 5 6 0 4 4 5 8 8 9 7 6 7 6 5 5 5 4 5 6 5 5 6 5 5 5 5 5 6 5
6 5 2 2 2 3 3 4 6 7 8 8 7 5 4 4 1 2 5 5 6 5 8 9 7 7 6 7 7 7 5 7 7 5 6 6 6 7 6 6 6 6 6
8 7 5 2 2 1 1 3 4 6 8 9 8 4 5 4 5 2 3 6 8 7 6 9 8 9 8 8 8 9 9 9 10 9 9 8 8 8 7 8 8 8 9
9 10 6 4 2 1 0 1 3 5 6 7 8 5 5 6 6 5 4 1 4 7 7 10 8 10 10 10 11 11 11 12 13 12 12 12 12 12 13 13 11 9 9
10 9 6 5 2 2 3 3 4 6 5 6 9 10 11 10 9 8 6 3 1 3 5 8 10 12 12 13 13 14 14 14 14 14 14 15 16 16 16 17 16 15 16
11 9 8 6 5 5 3 2 5 3 3 6 8 7 5 8 9 8 7 4 3 3 2 5 8 10 12 15 14 16 15 15 15 15 17 17 18 18 19 19 20 20 20
10 10 10 9 9 8 3 3 3 5 6 6 7 8 5 3 1 5 5 4 3 3 1 1 4 6 9 11 12 13 15 16 16 16 16 16 17 18 19 21 22 22 22
12 13 13 13 13 10 6 2 7 8 7 7 7 9 9 7 4 4 5 4 4 4 3 3 5 6 6 8 10 11 12 13 14 16 17 17 17 17 18 19 20 21 21
13 13 15 14 17 14 9 7 9 9 11 11 10 11 12 11 10 7 4 8 5 4 5 5 5 5 4 5 5 6 8 11 12 12 14 14 15 15 15 15 16 17 18
13 14 16 19 20 18 14 12 13 12 12 10 10 10 10 10 9 10 8 5 3 8 6 5 4 4 5 5 5 5 4 5 7 9 10 11 12 13 14 14 15 15 16
14 13 17 23 23 22 19 16 13 10 8 6 5 6 7 8 8 8 7 7 7 8 8 9 8 8 7 6 6 5 5 6 8 8 8 8 8 9 11 13 15 16 17
15 16 18 24 26 25 23 20 17 12 8 4 1 2 4 6 7 7 8 8 10 12 11 7 11 11 12 12 11 9 9 7 6 6 8 9 11 13 14 15 16 17 18
18 19 21 26 28 28 26 23 21 17 12 8 6 5 6 6 7 8 7 8 7 8 8 14 12 14 15 14 13 12 11 8 9 10 11 12 14 15 16 17 19 20 20
19 21 23 28 31 31 30 26 23 22 17 13 11 10 11 11 12 11 10 10 10 10 10 14 13 15 15 17 16 14 13 13 14 15 16 18 21 21 21 21 21 21 21
23 23 25 29 34 34 33 30 26 25 21 17 14 13 14 17 15 13 16 13 13 13 13 15 14 15 15 17 21 20 18 17 20 19 20 22 22 24 25 24 25 24 23
26 25 25 29 35 38 37 34 31 28 24 20 17 17 18 20 19 16 16 16 14 15 17 17 20 21 19 19 20 22 23 23 22 25 22 24 26 25 25 27 27 27 26
26 28 29 31 33 38 39 36 34 31 29 24 23 22 24 22 21 21 19 18 16 16 16 20 22 21 21 23 22 23 25 26 27 29 27 28 28 28 29 31 32 33 31
28 26 31 31 33 36 40 39 37 35 32 29 27 25 27 26 24 26 24 21 20 18 18 20 23 24 24 23 21 22 25 25 28 27 28 31 32 30 32 32 33 34 34
32 30 29 33 34 36 39 41 40 38 36 33 32 29 28 28 27 28 28 25 24 21 23 21 24 25 25 23 24 22 21 25 28 28 28 30 32 36 37 36 34 31 31
34 34 31 30 34 36 36 38 40 40 39 38 36 34 32 31 31 31 32 33 29 28 25 24 24 27 26 25 23 21 21 24 25 29 29 26 29 35 33 27 33 35 36
38 36 34 32 33 35 35 37 40 41 42 42 40 38 37 35 35 34 33 31 34 32 29 25 25 28 28 27 22 24 24 25 25 26 30 28 30 31 30 29 32 31 33
41 39 36 36 33 31 34 36 41 44 48 46 44 42 42 40 38 36 35 31 32 30 28 27 26 25 24 27 26 25 24 27 26 28 32 30 29 29 26 27 32 27 29
40 40 38 36 37 35 33 35 40 47 51 51 48 46 46 45 42 38 39 35 33 30 27 26 27 24 23 28 27 27 27 27 26 26 34 29 28 29 25 24 26 29 30
39 43 42 39 36 38 36 36 40 48 53 54 52 51 50 50 46 42 41 35 33 30 30 26 24 23 24 27 28 27 28 25 27 28 32 26 26 27 28 23 25 29 30

GFSMA_700_spd_027.txt.gz
Wind_Speed
3 3 2 4 2 1 3 6 7 11 11 4 4 4 4 7 14 9 4 9 8 6 3 2 2 3 2 2 3 3 3 3 2 1 1 2 2 3 3 3 3 4 5
4 2 1 4 2 3 2 4 6 5 14 5 4 5 5 4 5 13 6 6 7 7 5 4 4 3 2 2 3 3 3 4 4 2 3 3 4 4 5 5 4 5 5
5 5 3 2 4 3 4 5 6 13 15 6 6 10 8 7 1 12 3 7 6 6 7 5 4 4 3 4 3 3 3 3 4 4 5 6 5 4 4 4 5 5 6
5 5 4 1 5 5 3 5 6 8 3 7 8 9 1 6 7 5 8 4 5 6 8 8 7 5 5 7 5 5 5 5 6 6 4 7 6 6 6 5 5 6 7
8 8 5 3 2 6 6 4 5 4 5 1 4 1 4 0 10 7 2 3 8 2 7 9 8 8 7 7 8 8 8 8 8 9 9 8 7 7 7 6 7 8 7
8 7 5 3 2 3 4 4 4 4 3 5 4 5 4 3 7 7 11 2 4 7 8 10 9 9 9 9 10 10 10 10 11 12 12 12 11 11 11 12 13 11 10
7 7 7 8 4 6 5 5 3 3 2 2 9 6 4 6 7 8 5 2 2 10 9 7 8 11 8 12 12 12 12 12 12 13 13 13 13 13 14 15 16 15 14
9 9 9 8 6 6 6 5 7 2 3 3 11 1 4 8 5 1 1 3 3 3 4 5 7 10 12 11 13 14 14 14 13 14 15 15 15 15 15 16 17 18 18
11 10 11 10 8 8 8 5 4 6 1 3 3 12 5 4 5 12 5 2 5 5 5 4 4 5 9 11 10 12 13 13 14 15 15 15 15 16 17 17 17 17 18
12 11 12 11 10 10 6 4 3 7 4 6 7 8 7 8 5 6 11 11 5 4 4 6 8 5 6 8 10 9 11 11 12 12 12 13 14 14 14 14 15 15 17
13 12 12 13 12 12 10 6 6 5 8 10 10 8 7 8 5 4 4 9 12 8 7 5 5 9 7 8 7 8 9 9 9 9 9 10 10 11 10 10 11 11 12
12 11 12 13 16 15 13 9 9 11 10 9 9 7 7 9 9 8 5 9 6 11 11 11 9 8 10 10 10 10 9 7 6 5 5 6 6 7 8 9 10 10 11
14 13 13 14 17 19 18 13 13 12 9 7 7 6 6 6 5 5 4 2 3 5 11 6 8 9 10 13 12 7 6 4 4 3 3 3 4 7 9 11 13 15 16
14 17 14 16 21 23 23 19 15 13 9 6 4 3 1 3 3 4 5 6 8 11 15 9 13 10 10 9 10 10 9 8 7 6 6 8 9 11 14 16 16 17 18
18 17 17 18 21 24 26 24 20 16 13 10 7 5 4 6 6 8 9 9 7 2 11 20 14 16 13 16 11 11 12 13 14 13 12 11 13 14 15 16 16 16 16
18 20 18 20 21 25 27 27 25 22 18 14 13 10 10 11 10 10 11 11 10 9 5 11 17 15 13 16 17 14 15 15 15 16 17 18 17 18 19 20 19 20 20
22 23 20 21 21 25 28 29 28 26 23 19 18 17 15 15 14 13 12 13 14 13 11 9 15 18 18 16 21 16 17 16 18 17 14 18 19 20 23 22 23 24 23
27 24 25 23 24 25 29 31 30 30 27 23 21 21 21 18 17 18 17 13 14 16 14 16 14 21 20 21 20 21 17 18 19 23 21 21 22 22 24 24 23 26 27
33 30 29 29 26 26 28 31 32 33 32 29 26 25 24 23 20 21 21 21 17 17 17 17 20 21 22 23 22 23 20 17 19 23 22 21 22 22 23 24 27 29 29
28 27 26 26 28 28 28 28 30 33 34 33 29 29 28 27 24 22 26 22 24 22 20 20 20 23 24 24 23 22 19 21 18 19 24 27 28 26 27 29 30 26 24
27 27 29 28 26 29 30 31 32 35 36 35 35 34 34 32 29 27 28 27 26 24 23 25 23 24 26 20 22 25 20 19 21 21 25 29 29 29 32 35 37 36 29
30 31 31 29 29 28 28 28 30 34 37 40 41 40 39 39 36 31 33 32 30 28 24 23 25 26 27 27 24 24 21 19 19 21 27 25 24 24 25 33 35 35 32
35 34 35 35 34 30 29 27 28 33 37 40 42 43 43 43 40 36 36 36 34 33 28 22 23 26 29 29 28 23 23 23 23 24 25 26 24 27 29 32 31 27 27
37 38 38 38 37 32 30 29 27 31 36 41 44 44 45 46 47 43 39 40 39 38 33 29 24 23 26 30 28 24 24 24 26 24 26 26 25 24 26 24 27 26 25
42 42 41 40 39 34 30 32 32 34 37 41 45 47 49 49 50 50 44 45 43 42 39 33 28 26 25 27 29 26 24 24 26 26 25 26 28 27 25 21 26 28 30
38 41 41 40 40 37 38 34 36 39 39 41 44 48 51 52 52 54 51 48 49 45 42 38 33 29 26 24 28 24 24 25 25 24 24 26 28 29 25 22 22 27 31

GFSMA_700_spd_030.txt.gz
Wind_Speed
6 4 7 5 6 7 4 8 8 13 6 4 4 7 6 15 15 6 4 3 4 1 2 2 2 1 1 1 2 1 1 0 1 2 3 4 4 5 5 5 5 6 7
0 4 5 2 4 7 4 5 6 8 7 6 4 8 1 2 21 9 3 2 4 4 2 0 1 1 2 1 1 1 1 1 1 1 2 4 4 5 6 6 6 6 6
2 3 0 1 4 7 6 5 7 11 12 18 12 10 5 9 10 4 2 1 4 4 4 2 0 1 2 0 1 0 0 1 2 2 3 5 5 3 4 5 5 6 7
3 3 2 2 8 5 6 7 10 6 10 4 11 8 9 11 9 4 4 4 6 4 3 4 3 1 2 3 3 3 2 3 3 3 4 5 5 5 4 5 5 7 7
5 5 5 2 4 7 10 6 6 3 2 2 6 2 2 8 7 11 6 4 2 2 5 3 4 4 4 3 3 4 4 5 6 6 7 8 7 6 5 5 5 9 9
5 5 4 2 3 4 6 7 7 6 4 4 8 2 2 10 3 13 14 7 7 8 8 7 6 6 5 6 7 6 7 8 8 9 10 10 10 9 9 9 10 9 9
5 5 4 6 8 7 5 7 7 6 4 4 7 14 15 11 11 10 1 7 1 3 10 8 4 5 8 5 8 9 9 10 11 11 11 11 11 12 12 12 13 14 13
6 6 5 6 5 6 6 7 10 3 6 4 11 4 8 11 11 7 9 4 4 2 4 7 8 7 7 5 7 8 10 11 12 12 12 12 11 12 13 13 13 13 14
8 9 8 8 7 6 5 5 5 4 7 6 4 8 3 2 2 8 10 11 8 8 7 8 7 8 9 8 7 7 8 9 10 10 11 11 12 12 12 13 13 13 14
8 9 10 11 8 6 4 2 1 4 5 8 6 7 7 3 4 3 10 12 10 9 8 12 11 7 11 9 6 7 7 6 6 7 8 9 9 9 9 9 10 10 11
10 10 10 11 10 9 5 2 3 2 5 8 9 8 6 4 2 4 7 14 11 14 12 5 8 9 9 10 9 7 6 6 6 6 7 8 8 8 8 7 7 8 9
10 9 9 9 11 11 8 5 6 7 8 5 6 9 8 7 7 4 6 10 12 13 16 13 8 9 10 10 8 7 7 7 8 8 7 6 7 8 9 9 10 10 11
8 9 9 9 11 12 12 9 9 11 8 6 5 5 5 6 6 5 2 2 7 11 16 15 17 13 10 12 10 8 8 8 8 9 8 9 9 10 11 12 12 13 13
11 11 9 10 12 14 15 15 13 13 9 7 5 3 0 4 4 4 4 6 3 7 14 17 18 17 13 11 10 8 7 7 7 7 7 8 9 10 12 13 15 15 14
14 14 10 11 12 13 17 19 18 15 12 9 8 7 5 3 5 6 6 7 7 7 7 10 15 12 13 13 11 11 9 8 8 8 8 8 9 9 11 14 15 15 16
15 17 13 12 14 13 16 21 22 20 17 14 12 11 11 10 8 8 8 8 8 8 7 12 14 14 11 18 17 13 12 10 11 11 11 9 10 11 13 17 18 19 19
17 19 17 13 15 16 17 20 22 24 22 18 17 16 14 15 13 12 10 11 11 9 9 12 18 18 15 16 17 16 13 13 12 13 9 11 15 15 16 19 20 20 20
20 18 22 18 17 17 18 20 22 25 25 23 21 21 18 16 17 18 16 13 15 14 13 13 16 19 19 18 20 18 17 15 14 13 13 13 14 13 16 17 19 19 25
24 24 24 26 23 22 21 21 22 25 28 27 26 27 27 22 21 21 21 21 18 19 17 16 16 19 20 20 21 20 18 14 15 14 12 13 18 16 17 17 18 22 20
25 25 26 25 24 20 24 23 23 24 27 30 30 31 31 31 28 24 25 24 26 23 21 20 17 19 21 21 21 21 20 18 18 15 14 11 22 19 19 20 23 25 20
22 22 24 23 21 22 20 21 22 24 25 26 31 34 33 33 31 28 28 27 28 30 27 24 22 21 20 22 21 22 24 24 20 15 15 23 22 22 23 24 25 26 24
26 25 24 25 24 23 22 21 20 21 25 28 29 33 36 35 33 33 32 32 33 33 33 31 27 25 21 22 23 23 23 24 25 22 21 21 21 25 26 25 27 27 23
30 28 26 27 26 24 22 22 23 24 24 27 30 32 36 37 37 37 37 37 38 38 37 35 34 30 27 24 23 25 22 22 24 26 25 25 23 23 25 24 24 23 21
33 32 30 29 28 27 27 26 27 29 30 28 31 33 37 38 40 41 41 42 41 44 42 39 37 33 30 30 27 25 24 22 22 24 29 26 24 22 22 22 22 20 19
36 36 35 34 33 31 33 35 36 37 35 33 33 35 37 40 42 44 45 45 45 46 46 45 42 40 38 32 35 30 28 19 23 25 27 28 22 20 20 22 21 21 20
36 37 38 40 38 36 38 39 42 45 44 40 40 39 39 41 42 44 47 47 49 47 47 47 47 45 43 38 37 34 32 27 19 25 31 30 24 22 21 20 21 22 21

GFSMA_700_spd_033.txt.gz
Wind_Speed
5 6 9 6 5 8 9 12 8 12 7 7 3 7 2 4 7 5 6 6 6 5 4 4 4 3 3 4 4 4 3 3 3 3 4 4 3 4 5 6 7 7 7
1 5 5 4 6 9 9 6 6 10 4 8 5 9 6 7 10 9 5 6 5 4 3 3 4 4 2 3 4 4 3 2 1 1 3 4 4 4 4 5 5 6 7
1 0 1 2 8 6 7 3 5 11 12 14 15 10 9 3 6 6 2 4 4 3 3 2 3 4 4 2 3 2 2 1 1 1 1 3 4 3 4 4 4 5 7
1 1 3 2 7 7 9 8 6 6 8 5 12 7 7 7 5 3 6 4 5 5 3 3 2 2 3 1 2 1 0 0 0 1 1 3 6 5 4 3 4 6 7
3 4 3 2 5 6 8 6 8 8 4 10 6 7 10 10 10 13 13 8 2 3 1 5 4 3 1 1 2 2 2 2 3 4 5 6 6 6 5 5 5 7 7
5 5 3 1 3 8 7 7 7 5 3 6 13 8 3 9 13 8 13 10 7 3 4 2 4 3 3 4 4 5 5 5 6 6 6 7 7 6 6 7 8 8 8
5 4 3 0 1 5 6 7 8 2 3 5 13 15 12 13 11 13 15 13 11 12 10 9 4 2 4 5 4 6 6 6 6 7 8 8 8 9 8 8 9 11 11
6 5 4 3 1 4 6 8 8 6 6 6 8 13 8 11 14 14 14 8 10 10 11 9 10 9 7 4 5 3 3 6 7 8 8 9 9 8 9 9 10 12 12
7 6 6 5 1 2 5 6 8 8 5 8 9 8 10 7 10 7 9 9 13 10 10 9 7 9 6 4 5 4 4 5 6 6 6 6 7 7 7 8 8 9 9
8 7 7 6 3 0 3 4 7 8 5 7 9 11 10 13 11 7 12 12 13 12 10 10 7 10 8 7 7 7 8 7 7 6 6 7 5 4 5 5 6 7 7
9 8 8 7 6 4 3 3 5 7 7 6 8 12 11 12 11 10 10 11 14 15 14 15 12 10 10 7 8 7 7 8 8 8 9 8 8 8 7 8 8 8 9
8 6 6 6 7 4 5 5 5 7 8 6 5 8 10 10 8 8 9 9 10 14 17 18 14 11 11 8 8 7 6 6 7 8 6 6 5 5 5 7 8 9 9
8 6 5 5 6 6 6 8 8 10 8 7 7 6 6 7 7 8 9 9 10 11 14 14 14 13 13 10 8 7 5 6 6 5 4 3 3 3 4 6 7 9 9
9 8 7 5 7 7 6 10 10 11 8 7 7 6 5 4 7 8 8 9 11 11 13 12 11 12 13 12 9 5 3 3 3 3 3 4 4 5 6 6 8 10 9
10 9 9 7 7 6 7 9 12 12 10 9 8 6 3 1 4 6 7 9 9 10 12 12 12 13 14 13 12 10 7 5 3 4 5 6 5 7 8 9 11 11 11
12 12 10 9 8 7 8 9 15 16 13 12 11 10 7 4 4 4 6 8 9 10 11 12 13 12 12 14 13 13 13 12 10 8 8 8 8 9 11 13 13 14 13
15 14 9 8 7 9 9 10 12 17 18 17 16 16 13 13 9 9 8 8 9 11 11 13 13 12 12 12 12 13 14 14 13 12 11 9 10 10 11 13 13 15 14
16 16 15 12 10 10 11 10 11 15 19 20 19 20 18 19 17 15 13 11 12 13 12 14 15 14 12 11 13 13 14 15 13 11 14 12 9 7 10 13 14 13 15
18 18 20 18 13 13 15 16 14 14 16 20 22 23 22 22 21 20 20 17 16 17 16 14 16 16 16 15 14 13 14 13 14 13 12 11 8 10 10 12 14 16 12
20 21 21 19 17 14 15 18 19 17 17 19 21 23 25 26 24 23 25 24 23 22 21 20 18 19 17 16 18 15 15 14 12 14 14 17 17 13 14 17 19 18 16
22 22 22 23 20 18 15 15 17 18 18 20 22 23 24 25 25 25 27 28 28 28 29 26 24 23 24 21 20 18 18 18 14 13 12 13 15 17 16 16 18 19 16
23 23 23 21 21 18 16 15 16 17 17 19 21 25 26 26 26 28 29 31 32 34 33 33 32 30 28 27 27 24 23 21 20 15 17 16 14 21 25 20 19 19 15
27 26 24 23 22 20 18 17 19 21 21 21 22 23 26 30 30 29 30 34 35 37 38 38 38 36 34 32 32 33 26 25 23 22 21 20 14 20 30 26 20 21 15
32 30 29 28 26 23 25 25 25 26 27 28 28 27 28 29 32 34 34 36 37 38 39 41 42 40 38 34 38 37 32 30 28 28 26 23 16 14 24 27 25 22 15
35 36 33 32 30 28 28 30 34 36 34 33 34 35 35 35 34 35 38 40 40 42 40 40 42 42 42 42 42 42 39 35 31 29 29 29 17 18 24 34 28 21 17
25 33 34 33 33 32 32 33 35 38 40 41 42 40 39 39 41 43 43 44 44 43 42 40 41 42 42 44 46 45 41 39 36 34 32 34 26 21 26 32 30 21 18

GFSMA_700_spd_036.txt.gz
Wind_Speed
6 8 7 6 7 5 7 11 8 7 5 4 4 6 1 6 5 8 7 7 6 6 7 6 4 4 4 3 3 4 5 4 3 3 4 5 4 4 4 5 6 7 6
6 5 5 6 6 6 8 11 11 7 8 2 1 1 4 4 2 5 3 9 7 5 5 4 5 4 3 3 3 2 3 3 2 2 3 5 5 5 5 5 6 6 7
5 3 4 3 7 7 7 7 6 9 8 14 7 9 10 8 5 4 3 7 7 6 5 4 3 3 4 3 3 2 2 2 1 0 2 4 5 4 4 4 5 6 6
5 5 5 4 6 8 6 2 5 7 4 8 9 4 13 13 8 5 6 6 6 6 6 5 3 3 2 2 3 2 1 0 0 1 1 2 4 4 3 2 0 3 5
4 2 3 4 7 7 6 3 7 6 7 7 11 5 11 15 9 10 9 5 2 2 4 5 5 5 4 3 2 2 3 3 2 2 4 5 5 4 5 5 6 7 7
3 3 2 1 5 7 6 5 4 5 8 11 11 10 10 8 13 15 14 10 12 8 3 3 6 6 4 3 4 4 4 5 5 5 5 6 7 7 6 6 8 9 9
5 5 4 3 3 5 7 7 7 4 8 13 13 12 13 9 16 15 14 13 12 10 8 7 3 5 5 5 4 6 7 6 7 7 7 6 7 8 8 9 9 10 11
7 5 5 4 3 5 5 7 8 6 7 6 6 11 13 11 11 14 13 10 8 9 8 8 6 5 4 2 0 1 3 4 4 5 7 7 7 8 8 9 9 10 11
10 7 5 4 4 3 6 8 7 8 8 9 10 8 8 11 14 14 13 11 12 10 8 10 7 6 7 5 5 4 3 4 4 3 2 3 4 4 5 5 5 7 7
11 9 7 5 5 4 6 8 7 8 8 11 12 11 10 10 13 12 12 12 14 13 11 10 8 8 7 6 5 5 6 7 8 6 4 3 2 1 2 3 3 4 6
11 9 7 6 6 5 6 8 7 8 9 9 10 11 11 10 10 9 9 13 15 16 15 12 10 8 7 7 5 5 7 7 7 6 6 6 4 5 5 5 5 6 7
11 9 7 5 7 8 7 8 9 9 9 10 10 7 8 9 8 8 9 10 12 13 13 14 12 9 6 6 5 4 4 4 4 3 3 3 4 5 5 6 7 9 9
9 9 8 7 6 10 10 9 9 11 9 10 10 9 7 7 9 10 11 10 10 10 12 12 12 11 7 7 5 5 4 3 3 2 3 2 2 3 5 7 7 9 10
12 12 11 9 8 9 12 13 12 13 10 10 9 8 8 8 7 8 10 11 12 11 10 11 12 11 10 10 7 5 5 5 5 4 3 3 4 5 7 8 8 10 11
15 14 10 9 9 8 12 15 15 14 13 11 11 9 6 5 5 6 8 9 9 10 9 8 8 9 9 7 8 9 9 8 7 7 7 8 9 9 10 10 11 12 12
17 16 12 10 9 9 9 13 17 17 16 13 11 10 8 4 2 1 3 5 7 8 8 8 7 7 8 7 7 8 8 10 10 9 9 9 10 12 13 13 13 13 13
19 18 15 13 11 9 7 8 12 17 16 16 14 12 11 10 7 5 5 6 5 7 9 10 11 11 9 8 9 9 10 10 10 10 9 10 10 12 12 14 13 13 14
20 17 16 13 11 10 9 6 7 11 16 17 18 17 15 15 14 13 11 9 10 11 12 12 11 11 10 10 11 11 14 13 11 11 10 9 9 11 10 12 14 12 14
22 20 17 13 13 11 10 9 8 9 10 14 18 20 20 21 19 19 18 17 16 17 16 14 17 17 16 15 14 12 14 14 14 14 13 10 9 10 10 10 15 15 13
22 22 19 16 14 14 14 13 13 13 13 14 15 18 21 24 24 24 25 24 24 24 24 23 21 22 21 21 20 17 18 17 18 18 16 14 13 10 11 12 14 19 18
22 21 20 18 17 16 15 15 14 15 16 16 17 18 19 21 23 26 28 29 30 30 31 30 29 28 28 27 24 23 25 22 20 22 19 18 18 16 14 14 13 19 23
22 23 22 20 18 18 16 15 15 15 16 17 17 16 17 19 20 22 25 27 30 34 36 37 36 36 33 32 31 30 29 31 27 23 24 24 25 20 16 15 11 16 22
22 23 23 23 22 21 20 19 17 17 19 19 20 21 21 22 21 21 22 25 27 29 34 36 40 40 39 36 35 37 37 36 34 26 32 30 31 26 22 13 7 25 26
26 26 26 25 25 25 25 24 23 24 25 24 24 25 26 26 27 29 30 32 32 33 32 34 38 38 40 38 39 40 42 42 43 40 38 38 30 30 26 19 21 28 34
31 32 33 32 31 30 31 31 32 32 31 29 28 27 28 30 32 34 37 39 40 39 39 38 38 38 39 39 38 41 46 48 48 46 42 41 35 32 32 26 30 30 31
21 22 29 35 38 38 37 35 37 38 35 33 33 29 30 31 34 36 38 40 41 39 44 45 45 44 45 45 46 47 45 48 49 50 45 47 39 36 39 35 41 31 27

GFSMA_700_spd_039.txt.gz
Wind_Speed
7 4 5 8 7 7 6 6 4 1 3 4 4 3 6 8 7 9 10 7 5 5 5 6 6 5 5 4 3 3 2 2 3 5 7 7 6 6 6 6 6 7 6
7 4 6 8 8 6 7 10 9 8 4 5 3 3 6 8 9 9 10 8 6 5 5 4 5 3 4 4 3 2 3 2 1 2 3 5 5 5 5 5 5 6 6
8 5 4 2 6 6 6 7 10 9 10 10 4 10 11 11 9 8 9 8 7 5 4 5 4 3 3 3 3 2 2 1 0 1 1 2 5 5 4 3 3 4 6
6 6 2 4 3 6 5 4 6 6 6 9 6 15 15 11 7 8 7 5 7 6 4 3 3 2 2 1 1 0 0 1 2 2 3 3 4 5 4 4 4 4 6
6 6 3 3 5 4 4 4 7 6 8 7 8 15 13 11 11 9 7 4 2 4 6 5 4 3 3 3 3 4 4 4 5 5 6 7 7 6 7 7 8 8 9
6 5 4 2 4 3 3 4 4 7 7 9 10 15 14 12 14 13 11 9 8 3 3 4 5 5 5 5 6 6 6 6 7 8 8 7 7 9 9 10 10 11 11
7 5 3 3 2 4 5 4 6 7 9 12 8 14 14 12 14 13 12 10 9 8 7 4 2 5 6 7 7 7 8 8 9 8 8 9 9 9 10 10 11 11 11
7 9 6 4 3 3 6 6 6 7 7 7 10 9 11 11 13 13 10 7 8 8 7 8 6 3 0 2 3 2 3 5 6 7 7 7 7 9 9 9 9 10 10
8 9 7 5 4 4 5 6 8 9 7 8 11 9 10 11 12 12 10 8 9 9 7 8 7 5 4 4 5 5 4 3 3 4 5 5 5 4 4 5 6 7 7
10 8 8 7 6 4 5 6 9 10 9 9 10 11 11 11 12 12 11 10 10 10 8 8 6 7 6 5 5 4 4 4 4 4 4 5 5 5 5 6 6 7 7
12 9 8 9 8 7 7 7 8 10 9 9 9 10 9 9 9 10 11 11 10 9 8 7 6 7 7 6 5 3 4 5 6 6 5 4 4 5 6 7 8 9 10
14 12 10 10 10 9 8 9 9 10 10 9 8 9 8 9 10 10 11 11 10 10 9 8 6 6 7 7 7 5 5 6 6 6 6 5 5 6 8 9 10 10 12
13 11 10 10 10 11 12 12 12 12 11 10 8 9 10 10 11 11 11 10 11 11 10 9 8 7 7 6 6 5 5 5 5 4 3 5 5 7 10 12 14 14 14
14 14 13 11 12 14 14 14 14 14 13 12 10 9 10 10 10 10 9 9 10 10 9 8 8 7 7 7 7 7 7 7 7 7 7 7 8 8 9 12 15 17 18
18 17 15 13 12 14 15 15 15 15 13 13 12 10 9 9 9 7 7 7 6 6 7 7 6 7 8 8 8 10 10 8 8 9 10 10 11 13 13 12 14 16 18
20 17 15 14 13 13 16 17 17 16 16 14 13 11 9 7 5 4 3 2 4 5 6 6 6 6 7 8 9 10 10 11 10 10 10 12 11 12 15 16 16 15 17
21 19 17 15 13 12 14 15 18 19 18 18 16 15 12 10 7 6 5 4 4 5 4 4 3 5 7 9 10 10 12 12 12 12 13 12 13 11 11 15 18 14 18
23 21 19 16 14 14 13 13 15 18 20 20 19 17 16 16 14 13 12 11 11 12 11 10 11 11 10 10 11 11 14 15 16 16 15 15 15 16 15 16 16 12 14
24 23 22 19 17 16 13 11 11 12 13 16 20 21 20 21 21 20 19 18 18 19 20 20 18 19 19 17 18 18 17 18 19 20 20 18 17 20 19 19 18 16 11
24 24 23 22 21 19 17 15 13 12 12 12 14 16 19 23 24 24 24 25 25 26 27 27 26 26 27 26 25 24 23 24 24 24 23 23 23 24 23 22 18 17 11
24 23 23 22 22 22 19 17 15 14 14 14 15 17 17 18 19 22 25 27 29 31 33 33 33 33 32 32 32 32 34 31 32 30 31 28 27 29 29 26 23 21 14
24 23 22 21 20 20 18 16 16 16 16 17 18 17 17 18 19 20 21 23 25 28 32 33 35 36 35 36 35 37 38 40 42 35 37 37 34 34 32 30 27 23 18
22 23 22 22 21 21 20 18 17 18 18 19 19 19 20 20 20 20 21 22 24 26 29 32 35 36 35 32 34 36 38 40 44 42 40 42 42 42 37 34 31 29 26
21 22 23 23 23 23 22 21 21 22 22 21 21 21 23 23 25 27 29 32 32 33 35 36 39 37 39 39 40 41 41 42 45 47 47 51 47 46 43 39 38 36 34
24 24 25 25 26 26 27 27 28 29 29 27 26 27 27 28 30 32 34 36 35 34 39 42 44 44 43 43 47 50 50 51 52 51 48 50 52 48 44 44 47 43 38
28 28 29 31 33 34 35 36 37 36 34 32 31 30 30 31 32 33 34 35 35 33 35 37 37 38 41 40 41 48 51 57 58 60 56 57 54 53 53 51 48 48 44

GFSMA_700_spd_042.txt.gz
Wind_Speed
8 7 7 6 5 4 4 6 5 2 3 3 3 6 7 6 7 9 9 8 7 7 7 6 7 6 5 5 4 3 2 3 3 4 6 7 6 5 5 5 5 5 5
8 7 6 8 6 5 6 6 7 5 2 3 2 5 9 8 8 9 9 6 6 5 5 6 5 5 5 5 4 3 2 1 1 2 4 5 5 5 5 5 5 6 7
9 6 5 5 8 5 4 8 8 10 9 6 5 9 12 10 8 10 9 6 5 4 5 5 4 4 3 2 2 1 1 1 1 1 1 3 5 5 4 5 5 6 8
7 6 5 8 6 3 3 5 3 9 10 8 8 14 12 10 9 10 8 6 5 5 4 4 4 3 2 2 2 1 1 2 3 5 6 5 5 6 7 7 7 9 10
6 5 5 6 5 3 2 3 3 4 7 6 8 11 9 12 11 9 6 5 6 6 5 4 4 3 3 3 3 4 4 5 5 6 7 8 10 10 10 9 9 11 12
6 5 4 4 4 4 2 1 4 4 5 7 10 10 10 13 12 10 7 5 4 4 5 6 6 6 5 5 5 6 7 8 7 8 9 10 9 10 10 11 12 13 13
6 6 5 4 3 4 3 2 4 6 7 8 10 11 11 10 9 9 8 8 8 6 5 3 6 5 6 6 7 7 8 9 8 8 9 9 10 11 10 11 11 11 12
7 6 5 4 3 2 4 4 5 6 8 10 10 8 9 7 7 7 7 5 6 7 6 5 5 5 3 1 2 3 4 4 6 6 5 6 7 7 7 9 10 10 11
7 6 5 4 4 2 3 4 6 6 8 8 12 11 10 9 7 7 8 5 3 5 6 6 6 7 6 5 6 7 7 6 7 7 6 5 5 6 6 7 8 8 9
9 9 7 6 5 5 5 5 6 8 12 10 9 11 11 10 10 9 8 8 6 6 7 8 8 6 5 5 6 6 6 7 7 6 7 7 8 8 8 9 10 11 11
11 11 11 10 8 7 6 6 8 10 12 12 11 9 9 10 10 10 10 9 8 7 8 8 9 8 7 6 6 5 7 7 7 6 4 3 4 6 7 8 10 12 13
12 11 11 12 11 8 8 8 9 10 11 11 10 9 8 8 9 9 10 11 10 9 10 10 11 9 9 9 9 8 7 7 8 9 9 8 8 8 10 11 11 12 14
12 10 11 12 11 12 12 11 10 11 12 11 10 9 9 8 9 11 11 10 10 10 11 12 13 13 13 12 12 11 9 8 8 8 9 10 11 12 13 14 14 15 16
13 14 13 13 14 15 15 14 13 13 12 11 10 9 8 10 10 9 9 10 9 9 8 8 10 12 12 13 12 11 12 12 10 9 9 10 10 11 14 16 17 18 18
17 16 15 15 16 16 17 17 16 15 15 13 11 10 9 8 9 9 8 7 6 6 6 6 6 8 9 11 11 12 11 11 12 11 11 9 9 10 13 15 17 17 18
20 19 17 16 15 16 18 19 18 18 18 17 15 13 11 9 7 5 5 4 3 3 3 3 5 6 7 8 9 10 11 12 13 14 14 14 14 14 13 14 17 18 19
23 21 19 18 16 16 17 18 20 20 20 19 19 16 15 13 10 8 6 4 3 3 2 3 3 5 7 9 10 10 12 13 15 17 17 17 17 19 20 20 19 17 17
24 23 21 19 17 16 16 16 20 22 21 21 19 18 17 17 15 14 12 10 10 12 12 10 12 13 14 14 15 17 17 18 19 20 22 21 22 22 23 23 24 24 19
26 25 24 21 19 17 17 16 16 18 20 22 22 21 19 20 18 18 18 18 18 19 21 21 18 20 21 23 24 24 24 25 25 25 28 29 26 26 27 27 25 26 25
27 26 24 22 21 20 18 17 16 15 14 16 19 21 23 23 22 22 23 23 23 24 26 28 28 28 27 27 31 31 31 32 34 33 33 34 35 33 32 31 31 30 29
26 25 25 24 24 23 22 19 16 15 14 14 15 16 17 18 20 22 24 24 26 28 29 30 32 33 30 31 32 33 36 36 37 38 40 39 38 39 38 37 34 34 32
26 26 25 24 24 25 23 21 20 18 17 17 17 17 17 18 19 21 22 23 25 27 30 30 29 31 28 29 28 31 35 37 40 37 40 41 42 43 42 42 39 36 35
27 25 23 23 22 23 23 22 20 20 20 19 19 18 19 19 20 20 21 22 25 26 28 30 32 32 34 36 39 42 42 43 46 45 48 49 46 46 45 46 46 42 44
24 23 22 20 19 20 20 20 20 22 22 20 20 20 21 21 22 24 26 29 29 32 35 37 40 37 36 37 40 42 46 49 48 49 53 58 53 56 53 49 46 48 52
20 19 20 20 21 21 20 21 23 25 24 22 23 24 25 26 28 30 31 32 32 33 36 37 38 38 37 37 41 43 42 44 43 43 43 49 48 51 50 50 52 50 52
20 21 22 22 23 24 25 27 29 30 31 29 29 30 31 32 33 34 35 34 33 32 33 32 31 33 33 31 30 30 31 39 42 49 47 51 52 52 56 52 49 44 49

GFSMA_700_spd_045.txt.gz
Wind_Speed
5 7 8 6 6 7 8 7 4 2 2 3 4 7 5 7 7 9 8 8 7 7 6 7 6 5 5 4 4 3 3 3 4 5 6 8 7 7 8 8 9 10 11
6 6 7 7 5 7 9 7 5 2 0 2 4 7 8 7 8 9 8 6 5 5 4 5 5 5 4 3 3 2 2 3 3 4 6 8 8 8 6 6 6 7 10
5 8 7 6 6 5 6 6 8 7 7 4 4 10 9 7 8 9 8 6 5 4 3 4 5 4 3 2 2 2 3 3 4 5 4 5 7 8 8 8 8 9 11
5 7 8 7 7 5 5 5 8 7 5 4 11 11 9 7 8 9 8 6 5 4 3 3 2 2 1 1 1 2 3 4 4 5 7 7 8 9 9 10 11 11 12
5 6 7 6 6 5 3 5 3 6 6 5 9 8 8 9 9 8 7 6 5 5 5 4 5 3 3 3 3 4 5 6 6 7 8 9 9 10 11 12 12 13 14
5 4 5 4 5 4 2 3 2 3 5 6 8 3 9 9 7 4 3 2 4 6 6 6 5 4 4 4 6 7 7 7 8 8 9 10 10 9 10 11 12 12 13
5 4 4 4 5 4 3 1 2 4 5 7 6 9 9 8 6 5 5 5 3 1 1 3 5 6 6 6 7 7 6 6 6 6 7 7 8 8 9 9 9 9 10
6 5 5 3 3 5 4 2 3 6 8 9 9 8 7 5 4 4 5 4 4 5 6 5 4 2 3 3 4 6 6 6 6 6 6 6 6 6 6 7 8 9 9
7 7 5 3 4 5 4 3 4 7 8 10 10 11 8 7 6 5 5 5 5 6 7 6 5 6 6 6 6 7 7 7 8 9 8 7 7 8 8 9 9 9 9
9 8 6 4 3 4 5 5 6 8 10 12 11 11 10 9 8 7 7 8 8 9 9 9 9 10 8 9 9 9 9 10 10 10 9 9 9 9 9 9 9 10 10
11 10 7 6 5 5 5 7 9 10 10 11 12 11 9 9 9 9 9 10 10 10 11 13 15 15 13 13 12 11 11 12 12 12 12 11 11 11 12 13 13 14 15
12 12 10 10 9 7 7 8 12 10 9 9 9 10 10 8 9 9 9 10 11 14 15 15 15 14 13 13 14 13 12 13 13 13 13 14 13 12 13 15 16 17 19
12 13 12 12 12 11 10 11 12 12 9 8 8 9 10 10 10 9 9 10 11 11 12 13 13 14 13 13 12 11 11 11 12 12 12 11 12 13 14 16 18 19 20
14 16 14 14 15 14 13 14 14 13 11 9 7 8 9 10 10 10 10 10 9 8 9 10 10 10 10 11 11 11 10 9 9 9 10 11 11 12 13 14 15 18 19
18 18 16 16 16 17 16 15 16 15 14 12 10 9 9 9 8 9 8 8 8 6 4 5 5 7 8 8 9 9 10 11 11 12 12 14 15 18 19 20 19 16 16
22 20 17 16 17 16 18 18 18 19 17 14 12 10 10 10 8 7 5 5 5 3 1 2 4 5 7 8 9 10 12 13 14 15 17 18 19 20 22 24 24 23 22
23 20 18 18 18 16 17 19 21 21 21 20 17 14 12 11 9 8 6 5 4 4 3 4 5 7 8 12 14 16 17 18 20 21 22 23 24 24 24 25 27 27 27
24 22 21 20 19 17 17 19 23 23 23 23 22 20 17 15 13 12 11 10 9 10 10 11 13 15 16 19 20 22 24 26 27 27 29 30 31 31 31 30 30 30 29
25 24 24 22 21 19 18 18 20 23 24 24 24 23 22 21 19 17 16 16 16 18 19 19 18 22 22 25 27 29 31 32 33 33 36 37 38 39 38 38 37 35 33
27 27 25 23 22 21 20 19 19 19 21 24 24 23 22 23 21 21 21 21 22 24 26 27 27 28 28 28 30 32 35 35 37 38 40 41 41 42 44 44 43 42 40
29 28 27 26 25 25 23 20 18 16 16 17 19 21 22 23 24 25 25 25 27 28 30 31 30 30 28 27 27 29 33 34 35 38 38 39 42 44 43 43 46 47 47
31 29 28 27 26 25 22 20 19 18 17 16 15 16 16 18 20 22 24 24 26 26 27 28 25 26 26 30 33 36 39 41 43 45 45 45 47 47 49 50 49 48 48
31 29 28 26 25 24 23 22 22 22 21 20 19 19 19 19 19 20 20 22 23 24 25 25 28 31 33 37 39 41 42 42 41 46 49 41 45 42 41 40 42 41 43
30 28 26 24 24 23 22 24 24 25 25 24 23 22 23 22 23 24 25 26 26 28 30 33 35 34 35 36 39 41 41 41 34 36 42 42 40 45 46 46 46 45 42
29 28 25 24 22 21 21 23 25 27 26 24 24 24 24 24 25 27 30 31 30 32 35 36 37 37 38 39 41 41 41 39 34 32 40 48 47 50 52 53 50 49 44
26 26 25 23 22 21 22 24 26 28 27 25 24 25 26 28 29 31 35 36 36 35 36 37 36 34 34 35 36 33 31 36 38 43 43 48 51 54 62 57 57 53 50

GFSMA_700_spd_048.txt.gz
Wind_Speed
7 7 7 8 8 7 6 6 5 4 3 4 6 7 6 7 8 7 6 5 5 5 4 4 4 4 5 4 3 4 4 5 5 6 7 9 10 9 9 9 9 10 12
4 6 7 8 7 8 5 4 4 4 4 3 5 6 7 8 8 8 7 5 4 3 2 2 3 3 4 3 3 3 4 4 5 5 7 7 8 9 9 9 10 10 11
4 4 4 8 6 6 6 6 5 6 5 3 7 7 6 8 8 8 6 4 3 2 2 2 2 2 2 3 3 3 3 4 5 6 6 8 9 10 9 9 9 9 11
6 5 5 5 7 6 6 5 6 4 5 5 9 6 6 5 7 7 6 4 4 4 3 2 1 1 2 3 3 4 5 6 6 7 7 8 9 9 10 9 10 11 11
6 6 5 6 5 6 6 4 5 5 7 6 5 5 5 4 4 4 4 4 4 4 4 3 3 3 3 5 6 6 7 8 8 8 9 9 10 10 10 11 11 11 11
4 3 4 4 4 5 4 5 3 5 7 10 8 6 5 4 3 2 1 2 3 4 5 5 4 4 5 5 6 7 7 7 8 8 8 9 9 9 10 10 10 10 10
2 2 2 3 3 5 5 5 5 4 5 7 6 8 8 6 4 3 3 5 3 3 3 2 3 5 4 6 5 6 6 6 6 7 7 7 8 8 8 9 9 9 10
4 3 4 3 4 4 5 3 5 6 7 9 9 6 3 7 3 2 3 4 5 5 7 7 6 6 6 6 7 9 9 10 9 9 9 10 9 10 11 12 13 13 13
6 4 3 3 4 4 4 4 5 5 5 8 9 10 5 5 4 7 6 7 7 9 9 8 9 9 8 8 9 10 10 11 10 10 11 11 12 12 12 13 13 13 13
9 7 5 3 3 3 4 3 7 9 10 9 10 9 11 9 6 5 9 12 13 12 12 11 12 11 11 12 12 12 13 14 14 14 14 13 13 13 14 16 16 17 17
10 9 8 6 4 4 4 4 7 10 11 11 9 10 10 9 8 10 5 7 13 13 12 12 14 14 13 13 13 14 14 14 14 15 15 15 14 14 16 16 17 18 19
12 11 9 7 6 5 5 6 6 8 10 10 10 10 8 6 3 6 6 6 9 12 14 15 16 15 14 14 14 14 13 13 13 13 13 14 14 15 14 16 16 17 17
14 13 11 9 9 8 8 8 7 8 8 9 9 9 8 9 11 11 10 8 11 11 12 13 12 12 12 12 12 11 11 10 11 12 13 14 15 16 17 18 20 20 19
17 17 16 13 12 11 11 11 10 9 8 9 8 8 9 10 10 10 10 11 10 7 9 9 9 10 10 9 9 9 9 10 11 13 15 17 19 20 21 22 24 24 24
20 19 18 15 14 13 13 14 14 13 10 8 8 8 9 10 9 8 7 7 7 7 5 6 6 6 6 6 7 9 11 11 13 15 17 19 21 22 23 25 26 27 28
22 21 19 17 16 15 15 16 17 17 14 12 9 9 9 10 9 8 6 5 4 2 2 1 2 4 6 9 11 13 16 18 19 22 23 24 26 27 28 29 29 30 30
24 23 21 19 17 16 16 17 17 18 18 16 13 11 10 10 10 8 7 6 5 4 4 5 7 9 11 15 18 20 23 26 29 28 31 33 34 35 35 36 36 36 36
26 25 23 21 19 18 17 17 19 19 19 20 19 16 14 13 12 11 10 9 9 10 10 11 14 16 17 21 23 27 29 32 35 36 36 36 39 41 42 42 42 43 42
28 27 25 24 21 19 18 17 19 21 21 22 23 22 20 18 15 14 14 14 15 16 17 17 17 20 23 26 29 31 34 35 36 37 38 37 37 38 40 41 42 43 43
30 29 28 25 23 22 21 19 18 20 22 24 24 24 23 23 21 20 21 21 22 22 23 24 25 26 28 29 30 29 30 32 35 38 40 42 42 43 43 44 45 46 46
31 30 30 28 26 25 23 20 19 18 20 22 25 26 24 23 23 23 24 25 26 27 28 29 29 29 26 24 25 28 34 36 39 45 44 46 46 46 43 35 32 31 34
32 31 31 30 29 27 25 22 21 20 20 20 20 21 22 23 24 25 26 27 28 28 27 28 27 25 24 28 32 35 38 42 39 38 40 41 43 38 38 40 40 41 38
34 33 32 31 29 27 24 23 23 23 22 22 20 19 19 19 20 21 22 24 25 24 22 21 22 24 29 34 36 38 39 40 42 43 42 36 35 37 39 42 45 45 42
36 34 33 31 29 27 25 24 24 24 25 24 23 21 21 21 20 20 22 23 23 25 27 28 28 30 34 37 41 42 40 39 40 40 38 33 36 43 45 48 51 54 51
37 34 32 30 29 26 25 25 25 27 27 25 24 24 23 23 23 24 25 26 28 29 31 33 35 38 40 42 43 43 41 39 34 32 32 40 42 45 49 53 53 55 54
33 32 31 31 28 27 27 27 28 29 27 25 25 24 24 25 25 27 30 33 34 33 37 39 41 42 42 42 41 41 37 33 37 32 34 41 44 50 57 54 56 54 53